Location: El Azufral
(10.3513°N, 67.1528°W)
Time: 10:17:19
(UTC+00:00)

Nadezhda 4 Rocket - Pass Details

Date: 13 June 2024
Orbit: 949 x 992 km, 82.9° (Epoch: 20 July)

Event Time Altitude Azimuth Distance (km) Brightness Sun altitude
Rises 23:22:31 0° 177° (S) 3,646 6.7 -8.0°
Reaches altitude 10° 23:25:02 10° 174° (S) 2,705 6.0 -8.5°
Maximum altitude 23:31:10 66° 93° (E) 1,058 4.0 -9.9°
Drops below altitude 10° 23:37:22 10° 11° (NNE) 2,733 6.5 -11.2°
Sets 23:39:55 0° 9° (N) 3,685 7.3 -11.8°
